Regional Weather Roundup
Issued by NWS Grand Forks, ND

Home | Current Version | Previous Version | Graphics & Text | Print | Product List | Glossary On
Versions: 1 2 3 4 5 6 7 8 9 10 11 12 13 14 15 16 17 18 19 20 21 22 23 24 25 26 27 28 29 30 31 32 33 34 35 36 37 38 39 40 41 42 43 44 45 46 47 48 49 50
000
ASUS43 KFGF 301910
RWRFGF
PRAIRIE TO PINES  WEATHER ROUNDUP
NATIONAL WEATHER SERVICE EASTERN NORTH DAKOTA/GRAND FORKS ND
200 PM CDT THU JUL 30 2015

 **SATELLITE DATA USED TO AUGMENT SKY COVER AT AUTOMATED STATIONS**
 *****  WEATHER ACROSS EASTERN NORTH DAKOTA  *****

CITY           SKY/WX    TMP DP  RH WIND       PRES   REMARKS
GRAND FORKS    MOSUNNY   81  54  39 W18G28    30.00S
GRAND FRKS AFB SUNNY     79  55  42 NW17G23   30.01F
GRAND FRKS NWS   N/A     81 N/A N/A N12         N/A
DEVILS LAKE    SUNNY     79  54  41 NW20G32   30.05F
FARGO          SUNNY     82  55  39 W21       30.04F
WAHPETON ARPT  CLEAR     81  50  34 W9        30.06F
$$

 ***** WEATHER ACROSS CENTRAL AND WESTERN NORTH DAKOTA  *****

CITY           SKY/WX    TMP DP  RH WIND       PRES   REMARKS
BISMARCK       SUNNY     83  53  35 N13G18    30.15S
MINOT          SUNNY     81  47  30 W24       30.11F
JAMESTOWN      MOSUNNY   80  53  39 NW14      30.09F
MINOT AFB      SUNNY     82  53  36 NW22      30.10F
GARRISON         N/A     79  53  40 NW17G24   30.15S
WILLISTON      SUNNY     83  44  25 NW12G21   30.18F
DICKINSON      SUNNY     81  49  32 N8        30.19S
HETTINGER      SUNNY     87  42  20 NW14G24   30.21S
$$

 *****  OTHER AIRPORT OBSERVATIONS IN OUR AREA  *****

CITY           SKY/WX    TMP DP  RH WIND       PRES   REMARKS
WALHALLA       FAIR      77  55  47 MISG      29.98S
GRAFTON AIRPOR FAIR      81  54  39 W20G30    29.99S
VALLEY CITY AR FAIR      81  55  41 W17G23    30.08F
CANDO          NOT AVBL
CAVALIER APRT  FAIR      77  55  47 NW18      29.98S
GWINNER        FAIR      81  57  44 W13       30.10S
SHEYENNE NWR     N/A     82  56  40 W14       29.95S
ROLLA            N/A     73  55  53 NW18G25   30.07F
 ***** THE ABOVE OBSERVATIONS ARE NON NWS ARE NOT QUALITY
       CONTROLLED AND MAY MIS-REPORT RAIN FOR SNOW...
$$

  *****  WEATHER ACROSS NORTHERN MINNESOTA  *****

CITY           SKY/WX    TMP DP  RH WIND       PRES   REMARKS
FLAG ISLAND    MOSUNNY   75  55  50 W15G24    29.87F
WARROAD        MOSUNNY   79  61  53 W14G24    29.92S
ROSEAU         SUNNY     79  61  53 W13G26    29.93S
HALLOCK        MOSUNNY   81  54  39 NW14G24   29.96S
THF RVR FALLS  MOSUNNY   79  55  44 W15G22    29.99S
BAUDETTE       SUNNY     78  57  48 W21G26    29.92S
WASKISH        SUNNY     79  63  57 W15       29.94F
CROOKSTON      SUNNY     81  54  39 NW22G28   30.00F
$$
  *****  WEATHER ACROSS CENTRAL AND WEST MINNESOTA  *****

CITY           SKY/WX    TMP DP  RH WIND       PRES   REMARKS
FOSSTON        MOSUNNY   77  52  41 W22G30    30.01F
BEMIDJI        SUNNY     79  56  44 W17G23    29.99F
PARK RAPIDS    SUNNY     81  53  37 W21G31    30.02F
ELBOW LAKE     FAIR      79  58  49 W8        30.08S
WADENA         SUNNY     81  54  39 NW18G26   30.05F
DETROIT LAKES  SUNNY     79  54  41 NW18G28   30.07S
MOORHEAD       SUNNY     79  57  47 NW16G23   30.05S
FERGUS FALLS   SUNNY     81  55  41 W15       30.06S
MORRIS MN      SUNNY     81  61  50 W10       30.08F
STAPLES        SUNNY     79  52  38 W21G28    30.05S
$$
  *****  WEATHER ELSEWHERE ACROSS MINNESOTA  *****

CITY           SKY/WX    TMP DP  RH WIND       PRES   REMARKS
DULUTH         PTSUNNY   80  52  37 NW20G35   29.95S
INTRNTL FALLS  PTSUNNY   74  58  57 W9G22     29.90S
ELY            MOSUNNY   75  54  46 W15G22    29.91S
CLOQUET        MOSUNNY   81  46  30 W20G30    29.96F
WHEATON        SUNNY     79  59  50 W8        30.10S
BRAINERD       SUNNY     81  51  35 W20G29    30.02F
HIBBING        PTSUNNY   79  54  41 W18G31    29.94F
ALEXANDRIA     SUNNY     80  57  45 W15       30.10F
SAINT CLOUD    SUNNY     83  56  39 W15G25    30.05F
MINNEAPOLIS    SUNNY     84  56  38 NW15G23   30.05S
$$

  *****  WEATHER ACROSS SOUTH DAKOTA  *****

CITY           SKY/WX    TMP DP  RH WIND       PRES   REMARKS
SIOUX FALLS    SUNNY     84  63  49 VRB3      30.15S
BROOKINGS      SUNNY     82  55  39 W8        30.16S
WATERTOWN      SUNNY     83  53  35 W12       30.14F
HURON          SUNNY     86  53  32 W6        30.13F
SISSETON         N/A     83  56  39 NW12      30.08F
ABERDEEN       SUNNY     88  53  30 W13G18    30.10F
MITCHELL       SUNNY     86  59  39 VRB3      30.14F
PIERRE         SUNNY     89  43  20 NW9G16    30.15F
MOBRIDGE       SUNNY     89  51  27 NW10      30.12F
RAPID CITY     SUNNY     85  45  24 N8        30.25F
$$

  *****  SOME WEATHER IN NEARBY STATES *****

CITY           SKY/WX    TMP DP  RH WIND       PRES   REMARKS
GLASGOW MT     SUNNY     82  44  26 W8        30.20F
GREAT FALLS MT SUNNY     83  34  17 MISG      30.26F
CHEYENNE WY    SUNNY     81  45  28 VRB6G18   30.40F
SCOTTSBLUFF NE SUNNY     84  57  39 VRB6      30.28F
OMAHA NE       MOSUNNY   88  57  34 SW9       30.18F
DES MOINES IA  MOSUNNY   88  58  36 W18       30.15F
DAVENPORT IA   SUNNY     84  65  52 W12       30.11F
CHICAGO IL     MOSUNNY   87  52  29 W15G28    30.05F
EAU CLAIRE WI  MOSUNNY   83  56  39 NW17G28   30.01F
LA CROSSE WI   SUNNY     86  56  35 NW15G24   30.03F
$$

  *****  SOME NATIONAL WEATHER *****

CITY           SKY/WX    TMP DP  RH WIND       PRES   REMARKS
LA GUARDIA NY  TSTM      75  72  88 E9        29.83  FOG
RALEIGH NC     MOSUNNY   93  74  53 SW6       29.91F HX 103
ATLANTA GA     PTSUNNY   91  72  53 NW9       29.96F HX  98
NEW ORLEANS LA PTSUNNY   94  72  48 VRB7      29.99F HX 102
OKLAHOMA CITY  PTSUNNY   87  73  62 NE18G26   30.16F HX  94
ALBUQUERQUE NM PTSUNNY   77  57  50 NW7       30.37F
SALT LAKE CITY MOSUNNY   88  33  14 N10       30.28F
LOS ANGELES CA MOSUNNY   75  65  70 W13       30.02S
BOISE ID       SUNNY     89  33  13 E5        30.22F
SEATTLE WA     SUNNY     84  51  31 N7        30.10F
$$

*** WEATHER ACROSS MANITOBA...SASKATCHEWAN AND ONTARIO ***
                ***ONTARIO***

CITY           SKY/WX    TMP DP  RH WIND       PRES   REMARKS
GERALDTON      PTSUNNY   68  54  60 W12G25    29.71S
THUNDER BAY    PTSUNNY   77  55  47 W16G24    29.81F
SIOUX LOOKOUT  PTSUNNY   73  55  53 NW16G25   29.79F
TORONTO        PTSUNNY   86  55  35 W20G26    29.82F
BIG TROUT LK   CLOUDY    63  54  72 NW16G29   29.58R
PICKLE LAKE    PTSUNNY   68  55  64 W17G29    29.69S
DRYDEN         MOSUNNY   75  57  53 W18G25    29.82F
KENORA         PTSUNNY   75  61  60 MISG      29.86F
$$
                *** MANITOBA***

CITY           SKY/WX    TMP DP  RH WIND       PRES   REMARKS
BRANDON        MOSUNNY   77  55  47 NW18G29   30.01F
DAUPHIN        SUNNY     75  57  53 W21G31    29.94S
ISLAND LAKE    PTSUNNY   68  54  60 W8        29.74S
PILOT MOUND      N/A     73  52  46 NW15G24     N/A
THE PAS        TSTM      59  55  88 N17G31    29.87R
THOMPSON       PTSUNNY   66  55  68 NW7       29.79S
WINNIPEG       MOSUNNY   79  57  47 W22G30    29.92S
LYNN LAKE        N/A    N/A N/A N/A MISG        N/A
CHURCHILL      PTSUNNY   57  52  82 N18G26    29.67S
GILLAM         PTSUNNY   66  54  63 NW14G22   29.70S
$$
                ***SASKATCHEWAN***

CITY           SKY/WX    TMP DP  RH WIND       PRES   REMARKS
ESTEVAN          N/A     77  50  38 NW20G30   30.16S
KINDERSLEY     MOSUNNY   75  45  33 W10G22    30.17F
LLOYDMINSTER   MOSUNNY   72  45  37 NW18G24   30.14F
PRINCE ALBERT  MOSUNNY   73  52  46 W16G25    30.03F
REGINA         MOSUNNY   75  50  41 W20       30.16F
YORKTON        MOSUNNY   72  48  43 NW20G35   30.04F
N. BATTLEFORD  MOSUNNY   73  46  38 NW14G28   30.13F
LA RONGE       PTSUNNY   72  50  46 NW14G22   29.95S
SASKATOON      PTSUNNY   72  45  37 NW16      30.13S
SWIFT CURRENT  MOSUNNY   75  41  29 NW10      30.21S
$$
NOTE: THESE ARE AUTOMATED STATIONS WITH LIMITED QUALITY CONTROL
      "FAIR" INDICATES FEW OR NO CLOUDS BELOW 12,000 FEET WITH NO
      SIGNIFICANT WEATHER AND/OR OBSTRUCTIONS TO VISIBILITY.
      SKY/WX - SKY CONDITION AND SIGNIFICANT WEATHER.
      TMP - AIR TEMPERATURE.    DP   - DEWPOINT TEMPERATURE.
      RH  - RELATIVE HUMIDITY.  PRES - PRESSURE.
      HX  - HEAT INDEX.         WCI  - WIND CHILL INDEX.
$



USA.gov is the U.S. government's official web portal to all federal, state and local government web resources and services.